Fecha, hora, temperatura, viento dirección y velocidad, humedad y presión.

  • 19-03-2019 22:00:00 | 6.50°C | Este |15.00 km/h | 8.00% | 769.00 hPa
  • 19-03-2019 21:00:00 | 6.70°C | Este |14.00 km/h | 12.00% | 768.80 hPa
  • 19-03-2019 20:00:00 | 6.90°C | Sudeste |13.00 km/h | 13.00% | 768.20 hPa
  • 19-03-2019 19:00:00 | 8.20°C | Sudeste |16.00 km/h | 11.00% | 768.00 hPa
  • 19-03-2019 18:00:00 | 9.60°C | Sudeste |14.00 km/h | 10.00% | 767.80 hPa
  • 19-03-2019 17:00:00 | 9.70°C | Sudeste |13.00 km/h | 14.00% | 767.70 hPa
  • 19-03-2019 16:00:00 | 9.80°C | Sudeste |15.00 km/h | 16.00% | 767.80 hPa
  • 19-03-2019 15:00:00 | 10.60°C | Sudeste |23.00 km/h | 4.00% | 768.10 hPa
  • 19-03-2019 14:00:00 | 10.70°C | Sudeste |25.00 km/h | 4.00% | 768.50 hPa
  • 19-03-2019 13:00:00 | 10.20°C | Sudeste |28.00 km/h | 6.00% | 768.70 hPa
  • 19-03-2019 12:00:00 | 9.80°C | Sudeste |24.00 km/h | 13.00% | 769.10 hPa
  • 19-03-2019 11:00:00 | 9.40°C | Sudeste |23.00 km/h | 11.00% | 769.20 hPa
  • 19-03-2019 10:00:00 | 8.90°C | Sudeste |20.00 km/h | 9.00% | 769.10 hPa
  • 19-03-2019 09:00:00 | 8.80°C | Sudeste |17.00 km/h | 7.00% | 768.70 hPa
  • 19-03-2019 08:00:00 | 7.70°C | Este |21.00 km/h | 3.00% | 768.30 hPa
  • 19-03-2019 07:00:00 | 5.50°C | Este |15.00 km/h | 3.00% | 768.10 hPa
  • 19-03-2019 06:00:00 | 6.00°C | Nordeste |17.00 km/h | 3.00% | 767.80 hPa
  • 19-03-2019 05:00:00 | 5.50°C | Este |15.00 km/h | 3.00% | 767.70 hPa
  • 19-03-2019 04:00:00 | 5.60°C | Nordeste |12.00 km/h | 4.00% | 767.80 hPa
  • 19-03-2019 03:00:00 | 5.20°C | Nordeste |19.00 km/h | 4.00% | 768.20 hPa
  • 19-03-2019 02:00:00 | 4.70°C | Nordeste |18.00 km/h | 5.00% | 768.80 hPa
  • 19-03-2019 01:00:00 | 5.30°C | Este |4.00 km/h | 4.00% | 769.20 hPa
  • 19-03-2019 00:00:00 | 5.90°C | Nordeste |9.00 km/h | 3.00% | 769.40 hPa
  • 18-03-2019 23:00:00 | 4.60°C | Norte |14.00 km/h | 5.00% | 769.70 hPa
    • diseño web asturias Información sobre el estado de las mareas, altura de la marejada, temperatura del agua y otros datos de Gijón en Asturias.

      Surf Gijón